Home   Weather   Villahermosa   Past weeks

Flag for Mexico Past Weather in Villahermosa, Tabasco, Mexico — Yesterday and Last 2 Weeks

Now
82 °F

Broken clouds.


Feels Like: 87 °F
Forecast: 69 / 91 °F
Wind: No wind

Location: Villahermosa Airport

Current Time: Jan 19, 2017 at 1:39:55 pm

Latest Report: Jan 19, 2017 at 12:45 pm


Visibility: 3 mi

Pressure: 29.91 "Hg

Humidity: 70%

Dew Point: 72 °F

Location of VillahermosaLocation

Past Weather in Villahermosa — Graph

°F

Villahermosa Temperature Yesterday

Maximum temperature yesterday: 86 °F (at 12:41 pm)
Minimum temperature yesterday: 66 °F (at 6:40 am)
Average temperature yesterday: 77 °F

High & Low Weather Summary for the Past Weeks

 TemperatureHumidityPressure
High88 °F (Jan 6, 1:40 pm)100% (Jan 4, 10:44 pm)30.46 "Hg (Jan 4, 10:44 pm)
Low54 °F (Jan 10, 4:16 am)49% (Jan 6, 1:40 pm)29.61 "Hg (Jan 10, 5:40 am)
Average73 °F81%30.06 "Hg
* Reported Jan 4 11:45 am — Jan 19 11:43 am, Villahermosa, Weather by CustomWeather, © 2017

Note: Actual official high and low records may vary slightly from our data, if they occured in-between our weather recording intervals... More about our weather records

Advertising

Villahermosa Weather History for the Previous 24 Hours

Scroll right to see more
 ConditionsComfort  
Time TempWeatherWind HumidityBarometerVisibility
11:43 am
Thu, Jan 19
81 °FBroken clouds.No wind74%29.95 "Hg3 mi
10:40 am77 °FBroken clouds.No wind83%29.98 "Hg3 mi
10:07 am77 °FMore clouds than sun.5 mph83%29.98 "Hg3 mi
8:46 am73 °FFog.No wind94%29.96 "Hg2 mi
7:40 am72 °FFog.No wind100%29.95 "Hg2 mi
6:41 am72 °FFog.No wind94%29.93 "Hg2 mi
5:53 am70 °FFog.No wind100%29.92 "Hg2 mi
4:40 am68 °FPassing clouds.No wind100%29.92 "Hg7 mi
4:17 am68 °FPassing clouds.No wind100%29.92 "Hg7 mi
10:43 pm
Wed, Jan 18
72 °FClear.7 mph88%29.94 "Hg7 mi
9:44 pm72 °FClear.8 mph88%29.95 "Hg7 mi
8:44 pm73 °FClear.5 mph89%29.94 "Hg7 mi
7:45 pm77 °FClear.5 mph79%29.93 "Hg7 mi
6:44 pm77 °FClear.No wind83%29.91 "Hg7 mi
5:42 pm82 °FSunny.6 mph70%29.89 "Hg7 mi
4:42 pm86 °FPassing clouds.10 mph59%29.90 "Hg7 mi
3:46 pm86 °FScattered clouds.8 mph59%29.90 "Hg7 mi
2:49 pm86 °FScattered clouds.7 mph59%29.89 "Hg7 mi
1:40 pm86 °FScattered clouds.5 mph59%29.93 "Hg7 mi
Weather by CustomWeather, © 2017

See weather overviewHow to use our weather pages